Regional Weather Roundup
Issued by NWS

Home | Current Version | Previous Version | Text Only | Print | Product List | Glossary On
Versions: 1 2 3 4 5 6 7 8 9 10 11 12 13 14 15 16 17 18 19 20 21 22 23 24 25 26 27 28 29 30 31 32 33 34 35 36 37 38 39 40 41 42 43 44 45 46 47 48 49 50
000
ASUS43 KMPX 112301
RWRMN
WEATHER ROUNDUP FOR MINNESOTA
NATIONAL WEATHER SERVICE TWIN CITIES/CHANHASSEN MN
500 PM CST THU FEB 11 2016


NOTE: "FAIR" INDICATES FEW OR NO CLOUDS BELOW 12,000 FEET WITH NO
SIGNIFICANT WEATHER AND/OR OBSTRUCTIONS TO VISIBILITY. N/A MEANS
CURRENT SKY AND/OR WEATHER CONDITIONS ARE NOT AVAILABLE.

MNZ060>063-068>070-120000-
   Twin Cities Metro

CITY           SKY/WX    TMP DP  RH WIND       PRES   REMARKS
TWIN CITIES    CLOUDY    16   0  49 SW8       30.24S WCI   5
ST PAUL        CLOUDY    16   0  49 W9        30.25S WCI   4
CRYSTAL        CLOUDY    17   2  51 W8        30.22S WCI   7
BLAINE         CLOUDY    18   0  45 SW6       30.22S WCI   9
LAKEVILLE      CLOUDY    14   1  57 SW6       30.23S WCI   5
EDEN PRAIRIE   CLOUDY    17   2  51 SW6       30.22F WCI   9
SOUTH ST PAUL  CLOUDY    17   0  46 W6        30.24S WCI   9
LAKE ELMO      CLOUDY    18   3  53 S5        30.23S WCI  11
$$
MNZ001>005-007-008-013>017-022>024-027-028-120000-
   Northwest Minnesota

CITY           SKY/WX    TMP DP  RH WIND       PRES   REMARKS
BEMIDJI        CLOUDY    11  -2  54 W9        30.16S WCI  -1
HALLOCK        CLOUDY    12   7  79 NW12      30.25R WCI  -2
ROSEAU         CLOUDY    12   5  73 W9        30.19R WCI   0
WARROAD        CLOUDY    12   3  67 W10       30.17S WCI  -1
THIEF RVR FALL CLOUDY    10   9  92 NW9       30.22R WCI  -2
CROOKSTON      FLURRIES  14   9  79 NW7       30.25R WCI   4
FOSSTON        CLOUDY    10   0  61 W7        30.20R WCI   0
DETROIT LAKES  FLURRIES  14   7  73 NW6       30.19R WCI   5
MOORHEAD       MIX PCPN  14   5  67 N6        30.24R WCI   5
PARK RAPIDS    CLOUDY    14   0  53 W8        30.15S WCI   3
MAHNOMEN       CLOUDY    11   1  63 NW5       30.20R WCI   3
$$
MNZ006-009>011-018-025>026-120000-
   North Central Minnesota

CITY           SKY/WX    TMP DP  RH WIND       PRES   REMARKS
BAUDETTE       CLOUDY    11  -1  58 W10       30.14R WCI  -3
FLAG ISLAND    CLOUDY    10   1  67 NW16      30.15R WCI  -7
INTL FALLS     CLOUDY    11  -3  53 W10       30.12S WCI  -3
WASKISH        CLOUDY    12   3  67 W9        30.16S WCI   0
LONGVILLE      CLOUDY    12  -2  52 W8        30.16S WCI   1
GRAND RAPIDS   CLOUDY    12  -4  48 NW7       30.14S WCI   2
CRANE LAKE     CLOUDY    10  -6  48 NW2       30.13S
ORR            CLOUDY    10  -6  48 W3        30.08F
COOK           CLOUDY    10  -6  48 W9        30.11S WCI  -2
WALKER         CLOUDY    14  -4  45 W8        30.15S WCI   2
$$
MNZ012-019>021-037-120000-
   Northeast Minnesota

CITY           SKY/WX    TMP DP  RH WIND       PRES   REMARKS
DULUTH         MOCLDY    12  -4  48 W14       30.11R WCI  -3
ELY            CLOUDY     9  -2  61 W7        30.08S WCI  -3
HIBBING        CLOUDY    10  -8  44 W8        30.12S WCI  -2
EVELETH        MOCLDY    12  -6  44 W10       30.12S WCI  -1
DULUTH HARBOR  CLOUDY    18   0  45 W10       30.19R WCI   6
TWO HARBORS    CLOUDY    16  -2  45 W7        30.10S WCI   6
SILVER BAY     CLOUDY    14  -6  41 W3        30.09S
GRAND MARAIS     N/A     14  -1  51 W6        30.12R WCI   5
G MARAIS ARPRT CLEAR      7  -6  56 W9        30.01S WCI  -7
$$
MNZ029>031-032-039>041-046>048-054>057-064-120000-
   West Central Minnesota

CITY           SKY/WX    TMP DP  RH WIND       PRES   REMARKS
FERGUS FALLS   LGT SNOW  14   9  79 CALM      30.24R
WHEATON        CLOUDY    18  12  79 CALM      30.22R
MORRIS         CLOUDY    16   9  73 S3        30.19R
ALEXANDRIA     CLOUDY    13   7  77 W7        30.17S HAZE    WCI   3
ELBOW LAKE     LGT SNOW  13   9  85 CALM      30.19S
WADENA         FLURRIES  12   5  73 W7        30.17S WCI   2
GLENWOOD       CLOUDY    14   7  73 SW3       30.18S
APPLETON       MOCLDY    18  10  73 S3        30.20R
BENSON         CLOUDY    16   9  73 CALM      30.20R
ORTONVILLE     PTCLDY    16  10  79 E3        30.19R
MADISON        FLURRIES  18  12  79 SW5       30.19S WCI  11
WILLMAR        CLOUDY    16  10  79 CALM      30.20S
$$
MNZ033>034-036-042>043-049>051-058-059-120000-
   Central Minnesota

CITY           SKY/WX    TMP DP  RH WIND       PRES   REMARKS
ST CLOUD       LGT SNOW  14   8  77 SW6       30.21S WCI   5
SAUK CENTRE    FLURRIES  14   7  74 W6        30.18F WCI   5
PAYNESVILLE    FLURRIES  15   6  68 SW5       30.20S WCI   7
AITKIN         CLOUDY    16  -2  45 SW3       30.16R
PINE RIVER     CLOUDY    14   1  57 CALM      30.19S
BRAINERD       CLOUDY    13   1  59 SW8       30.18R WCI   2
STAPLES        CLOUDY    14   5  67 W7        30.17S WCI   4
LONG PRAIRIE   FLURRIES  14   9  79 W5        30.18S WCI   6
LITTLE FALLS   LGT SNOW  14   9  79 SW3       30.20S
LITCHFIELD     CLOUDY    16   7  67 CALM      30.21S
BUFFALO        LGT SNOW  15   7  69 SW5       30.23S WCI   8
MAPLE LAKE     LGT SNOW  16   9  71 SW6       30.22S WCI   8
$$
MNZ037-044-045-052-053-120000-
   East Central Minnesota

CITY           SKY/WX    TMP DP  RH WIND       PRES   REMARKS
PRINCETON      FLURRIES  16   5  62 SW7       30.21S WCI   6
MORA           CLOUDY    14   1  57 W5        30.22S WCI   6
CAMBRIDGE      CLOUDY    16   3  57 CALM      30.20S
RUSH CITY      CLOUDY    15   0  51 W6        30.22S WCI   6
MOOSE LAKE     CLOUDY    14   0  52 W8        30.16S WCI   3
HINCKLEY       CLOUDY    14   1  57 SW9       30.20R WCI   2
CLOQUET        CLOUDY    12  -8  40 W10       30.13S WCI  -1
MCGREGOR       CLOUDY    14   1  57 W3        30.17R
$$
MNZ071>073-080-081-089-090-097-098-120000-
   Southwest Minnesota

CITY           SKY/WX    TMP DP  RH WIND       PRES   REMARKS
MONTEVIDEO     FLURRIES  16  10  79 SW6       30.21R WCI   7
GRANITE FALLS  CLOUDY    19  15  84 S7        30.21R WCI  10
CANBY          FLURRIES  22  17  79 CALM      30.19R
MARSHALL       MIX PCPN  18  13  80 SW7       30.18S WCI   9
REDWOOD FALLS  CLOUDY    16  11  80 S8        30.20S HAZE    WCI   5
OLIVIA         CLOUDY    18  10  73 S5        30.19R WCI  11
PIPESTONE      FLURRIES  18   9  68 S7        30.14R WCI   8
WINDOM         LGT SNOW  16  10  79 S8        30.17S WCI   5
WORTHINGTON    CLOUDY    14   9  79 S8        30.16S WCI   3
JACKSON        LGT SNOW  16   9  73 S9        30.18S WCI   4
TRACY          LGT SNOW  18  14  84 S6        30.17F WCI   9
SLAYTON        LGT SNOW  15  13  92 S8        30.15S WCI   4
$$
MNZ065>067-074>077-082>085-091>093-120000-
   South Central Minnesota

CITY           SKY/WX    TMP DP  RH WIND       PRES   REMARKS
MANKATO        CLOUDY    16   3  57 SW9       30.22F WCI   4
NEW ULM        CLOUDY    16   7  67 S8        30.21F WCI   5
ST JAMES       CLOUDY    16  10  79 S8        30.22S WCI   5
FAIRMONT       CLOUDY    12   5  73 S10       30.20F WCI  -1
GLENCOE        CLOUDY    17   9  71 S8        30.22S WCI   6
FARIBAULT      CLOUDY    16   5  62 SW9       30.23S WCI   4
OWATONNA       CLOUDY    14   3  62 SW10      30.22R WCI   1
WASECA         CLOUDY    14   5  67 SW9       30.24R WCI   2
ALBERT LEA     MOCLDY    12   3  67 SW7       30.21F WCI   2
$$
MNZ078>079-086>088-094>096-120000-
   Southeast Minnesota

CITY           SKY/WX    TMP DP  RH WIND       PRES   REMARKS
ROCHESTER      CLOUDY    10   1  67 SW12      30.22S WCI  -5
STANTON        CLOUDY    18   5  56 W9        30.22S WCI   7
DODGE CENTER   CLOUDY    10   3  72 SW7       30.21R WCI   0
WINONA         CLOUDY    18   1  49 SW3       30.27S
AUSTIN         PTCLDY    10   3  72 SW7       30.22S WCI   0
PRESTON        PTCLDY    10  -1  61 SW7       30.23S WCI  -1
$$
ABBREVIATIONS USED IN REMARKS
   TC - TEMPERATURES IN CELSIUS
  WCI - WIND CHILL INDEX
   HX - HEAT INDEX
  VSB - VISIBILITY
$$



USA.gov is the U.S. government's official web portal to all federal, state and local government web resources and services.